Letzte Messung
Zeitpunkt Temperatur Luftfeuchte Luftdruck
2021-01-23 18:01:42 5.61 ℃ 67.34 % 995.27 hPa

Zeitpunkt Temperatur Luftfeuchte Luftdruck
2021-01-23 18:01:42 5.61 ℃ 67.34 % 995.27 hPa
2021-01-23 17:51:42 5.66 ℃ 67.89 % 995.29 hPa
2021-01-23 17:41:42 5.76 ℃ 67.86 % 995.32 hPa
2021-01-23 17:31:42 5.71 ℃ 68.63 % 995.37 hPa
2021-01-23 17:21:42 5.51 ℃ 68.02 % 995.39 hPa
2021-01-23 17:11:42 5.54 ℃ 68 % 995.38 hPa
2021-01-23 17:01:42 5.54 ℃ 67.96 % 995.33 hPa
2021-01-23 16:51:42 5.52 ℃ 67.67 % 995.33 hPa
2021-01-23 16:41:42 5.68 ℃ 67.35 % 995.33 hPa
2021-01-23 16:31:42 5.66 ℃ 67.66 % 995.34 hPa
2021-01-23 16:21:42 5.57 ℃ 67.81 % 995.31 hPa
2021-01-23 16:11:42 5.62 ℃ 67.34 % 995.27 hPa
2021-01-23 16:01:42 5.65 ℃ 68.2 % 995.22 hPa
2021-01-23 15:51:42 5.75 ℃ 68.29 % 995.15 hPa
2021-01-23 15:41:42 5.67 ℃ 69.13 % 995.12 hPa
2021-01-23 15:31:42 5.86 ℃ 71.03 % 995.13 hPa
2021-01-23 15:21:42 5.7 ℃ 67.06 % 995.16 hPa
2021-01-23 15:11:42 5.81 ℃ 67.06 % 995.18 hPa
2021-01-23 15:01:42 5.74 ℃ 67.44 % 995.18 hPa
2021-01-23 14:51:42 5.79 ℃ 66.81 % 995.21 hPa
2021-01-23 14:41:42 5.8 ℃ 66.87 % 995.25 hPa
2021-01-23 14:31:42 5.73 ℃ 67.54 % 995.25 hPa
2021-01-23 14:21:42 5.83 ℃ 67.27 % 995.3 hPa
2021-01-23 14:11:42 5.87 ℃ 67.19 % 995.41 hPa
2021-01-23 14:01:42 5.77 ℃ 67.9 % 995.53 hPa
2021-01-23 13:51:42 6 ℃ 68.57 % 995.6 hPa
2021-01-23 13:41:42 5.57 ℃ 67.42 % 995.73 hPa
2021-01-23 13:31:42 5.46 ℃ 67.97 % 995.81 hPa
2021-01-23 13:21:42 5.24 ℃ 68.96 % 995.94 hPa
2021-01-23 13:11:43 4.99 ℃ 69.42 % 996.04 hPa
2021-01-23 13:01:42 4.8 ℃ 70.02 % 996.18 hPa
2021-01-23 12:51:42 4.74 ℃ 70.37 % 996.3 hPa
2021-01-23 12:41:42 4.66 ℃ 70.77 % 996.49 hPa
2021-01-23 12:31:43 4.63 ℃ 71.17 % 996.63 hPa
2021-01-23 12:21:43 4.59 ℃ 71.6 % 996.75 hPa
2021-01-23 12:11:43 4.41 ℃ 72 % 996.85 hPa
Durchschnitt 5.48 ℃ 68.43 % 995.56 hPa

weatherino

Wetterdaten aus der Harmsstraße 54 in 24114 Kiel (4. OG, außen), die per BME280 und einem ESP-32 erhoben werden.

Unter https://wetter.janbpunkt.de/weather.xml steht eine entsprechende XML bereit, die das jüngste Messergebnis enthält.

Da der weatherino ab und zu ausfällt/gewartet wird, können Messpunkte fehlen.

Mehr zu dem Projekt findet man hier.

SSL, keine Cookies, keine IP-Adress-Speicherung, keine Verarbeitung von personenbezogenen Daten

Impressum

Extremwerte

Nachfolgend die Extremwerte seit Aufzeichnung.

BezeichnungWertZeitpunkt
Niedrigste Temperatur-1.49 ℃2021-01-17 08:21:57
Höchste Temperatur29.88 ℃2020-08-16 14:01:47
Niedrigster Luftdruck979.11 hPa2021-01-22 05:21:46
Höchster Luftdruck1074.18 hPa2020-12-24 17:16:12
Niedrigste Luftfeuchtigkeit22.3 %2020-04-13 15:26:13
Höchste Luftfeuchtigkeit100 %2020-12-18 11:32:28